[[{"header":{"parameterUnit":"m.s-1","parameterCategory":1,"la1":30.2992,"la2":30.254,"lo1":-89.0895,"lo2":-89.0443,"dy":0.0025,"dx":0.0025,"nx":19,"ny":19,"refTime":"2026-03-23T03:00:00:Z","depth":0,"parameterNumber":2,"parameterNumberName":"U-component_of_WINDS"},"data":[0,0,0,3.522,3.5223,3.5342,3.5342,3.5519,3.5521,0,0,0,0,0,0,0,0,0,0,0,3.5198,3.52,3.522,3.5223,3.5342,3.5342,3.5519,3.5521,0,0,0,0,0,0,0,0,0,0,0,3.5198,3.52,3.5202,3.5224,3.5342,3.5342,3.5518,3.542,0,0,0,0,0,0,0,0,0,0,3.5301,3.5293,3.5199,3.5202,3.5225,3.5341,3.5342,3.5415,3.5426,3.5476,0,3.5521,0,3.5524,3.5534,3.5535,0,0,0,3.5214,3.5284,3.5304,3.5202,3.5226,3.5341,3.5285,3.5421,3.5434,3.5491,3.5523,3.5529,3.5527,3.5535,3.5536,3.5849,3.5851,0,0,3.5207,3.5227,3.5295,3.5313,3.5294,3.5282,3.5289,3.5428,3.5466,3.5524,3.5533,3.553,3.5537,3.5538,3.5847,3.5849,0,0,0,3.5195,3.5223,3.5239,3.5306,3.5325,3.5285,3.5294,3.546,3.5463,3.5535,3.5532,3.5538,3.554,3.5845,3.5848,3.5961,0,0,0,3.519,3.5216,3.5237,3.525,3.5323,3.5394,3.5323,3.5454,3.5469,3.5531,3.5538,3.5542,3.5843,3.5846,3.5954,3.6012,0,0,0,3.5186,3.5215,3.5237,3.5251,3.5302,3.5391,3.5402,3.5456,3.5468,3.5535,3.5543,3.5841,3.5846,3.5947,3.6,3.61,0,0,0,3.5188,3.5336,3.5239,3.5404,3.5302,3.546,3.5401,3.5518,3.5589,3.5539,3.5843,3.5848,3.5945,3.5993,3.6093,3.6187,3.6229,0,0,3.5386,3.5361,3.5456,3.5373,3.5553,3.544,3.5639,3.5685,3.5674,3.5792,3.5799,3.5956,3.6,3.6099,3.6453,3.6486,0,0,0,3.5526,3.5595,3.5638,3.5707,3.5745,3.5784,3.5798,3.5816,3.5915,3.5738,3.6018,3.6044,3.6101,3.6145,3.6173,3.6222,3.5869,3.5868,3.5868,3.5835,3.5812,3.5969,3.5962,3.6029,3.6043,3.6096,3.6123,3.608,3.6147,3.6182,3.6399,3.6452,3.6473,3.6523,3.623,3.623,3.6231,3.6231,3.6124,3.6218,3.6159,3.629,3.6266,3.6376,3.6397,3.6363,3.6464,3.6371,3.642,3.6321,3.651,3.6553,3.6239,3.6238,3.6237,3.6236,3.6235,3.6324,3.6365,3.6384,3.6481,3.656,3.6548,3.6647,3.6622,3.6599,3.6648,3.6682,3.668,3.6676,3.6666,3.6667,3.6668,3.6668,3.6669,3.6669,3.6523,3.6541,3.6627,3.6682,3.6723,3.6775,3.6793,3.6833,3.6872,3.6846,3.6846,3.6798,3.6532,3.6466,3.6681,3.6679,3.6677,3.6676,3.6676,3.6823,3.6752,3.6885,3.6927,3.699,3.7071,3.7038,3.7124,3.7154,3.7205,3.7147,3.6954,3.6926,3.6904,3.6849,3.715,3.715,3.715,3.715,3.6992,3.6975,3.7106,3.7175,3.724,3.7224,3.7378,3.7394,3.7399,3.7417,3.737,3.7295,3.7274,3.7259,3.7229,3.7177,3.7555,3.7556,3.7556,3.7175,3.7164,3.7298,3.7302,3.7351,3.7394,3.7538,3.7621,3.7613,3.7572,3.7431,3.7414,3.7292,3.7254,3.7209,3.7163,3.7067,0,0]},{"header":{"parameterUnit":"m.s-1","parameterCategory":1,"la1":30.2992,"la2":30.254,"lo1":-89.0895,"lo2":-89.0443,"dy":0.0025,"dx":0.0025,"nx":19,"ny":19,"refTime":"2026-03-23T03:00:00:Z","depth":0,"parameterNumber":3,"parameterNumberName":"V-component_of_WINDS"},"data":[0,0,0,0.4991,0.4992,0.5019,0.5019,0.5066,0.5067,0,0,0,0,0,0,0,0,0,0,0,0.499,0.4991,0.4991,0.4992,0.5019,0.5019,0.5066,0.5067,0,0,0,0,0,0,0,0,0,0,0,0.499,0.499,0.4991,0.4992,0.5019,0.5019,0.5066,0.5041,0,0,0,0,0,0,0,0,0,0,0.5013,0.5018,0.499,0.4991,0.4992,0.5019,0.5019,0.504,0.5043,0.5059,0,0.5074,0,0.5071,0.5071,0.5071,0,0,0,0.4987,0.5016,0.5017,0.4991,0.4993,0.5019,0.5006,0.5042,0.5045,0.5063,0.5075,0.5076,0.5072,0.5071,0.5071,0.5178,0.5179,0,0,0.4986,0.4999,0.5015,0.5019,0.5015,0.5005,0.5006,0.5043,0.5058,0.5075,0.5077,0.5073,0.5071,0.5072,0.5177,0.5178,0,0,0,0.4985,0.4998,0.4998,0.5018,0.5022,0.5006,0.5008,0.5056,0.5055,0.5078,0.5073,0.5072,0.5072,0.5177,0.5178,0.5227,0,0,0,0.4984,0.4997,0.4997,0.5006,0.5021,0.5039,0.502,0.5052,0.5056,0.5073,0.5072,0.5073,0.5176,0.5177,0.5224,0.5249,0,0,0,0.4986,0.4997,0.5003,0.5006,0.5018,0.5038,0.5039,0.5053,0.5054,0.5071,0.5073,0.5175,0.5177,0.5221,0.5244,0.5282,0,0,0,0.4992,0.5047,0.5004,0.5063,0.5018,0.5067,0.5038,0.5075,0.5095,0.5072,0.5176,0.5178,0.522,0.5241,0.5279,0.5317,0.5333,0,0,0.5068,0.5056,0.509,0.5053,0.5113,0.5062,0.513,0.5136,0.5126,0.5162,0.5164,0.5225,0.5244,0.5281,0.5418,0.5431,0,0,0,0.5118,0.5143,0.5155,0.5175,0.5181,0.5189,0.5183,0.5186,0.5215,0.5147,0.5247,0.5258,0.5279,0.5297,0.5308,0.5327,0.5186,0.5186,0.5185,0.5245,0.5229,0.5283,0.527,0.529,0.5283,0.5298,0.5301,0.5279,0.5302,0.5314,0.5399,0.542,0.5428,0.5448,0.5331,0.5331,0.5331,0.5331,0.5356,0.5389,0.5357,0.5399,0.5382,0.5417,0.5413,0.5396,0.5428,0.5389,0.5407,0.5368,0.5443,0.546,0.5335,0.5334,0.5334,0.5333,0.5333,0.5439,0.5452,0.5453,0.548,0.5503,0.5487,0.5518,0.5501,0.5485,0.5502,0.5513,0.5512,0.5511,0.5508,0.5509,0.5509,0.5509,0.5509,0.5509,0.5526,0.5526,0.5554,0.5564,0.5575,0.5586,0.558,0.559,0.5597,0.5582,0.5582,0.5559,0.5453,0.5428,0.5514,0.5513,0.5513,0.5512,0.5512,0.5649,0.5618,0.5662,0.5672,0.5683,0.5707,0.5683,0.5705,0.5711,0.5727,0.5699,0.5623,0.561,0.5601,0.5581,0.5701,0.5701,0.5701,0.5701,0.5721,0.5711,0.5752,0.577,0.5786,0.5769,0.582,0.5815,0.5806,0.5809,0.5788,0.5758,0.575,0.5742,0.573,0.5711,0.5862,0.5862,0.5862,0.5796,0.5787,0.5834,0.5824,0.5831,0.5837,0.5885,0.5908,0.5891,0.5868,0.5811,0.5804,0.5756,0.5741,0.572,0.5701,0.5666,0,0]}]]